Regional Weather Roundup
Issued by NWS

Home | Current Version | Previous Version | Text Only | Print | Product List | Glossary Off
Versions: 1 2 3 4 5 6 7 8 9 10 11 12 13 14 15 16 17 18 19 20 21 22 23 24 25 26 27 28 29 30 31 32 33 34 35 36 37 38 39 40 41 42 43 44 45 46 47 48 49 50

000
ASUS43 KIND 191009
RWRIN

WEATHER ROUNDUP FOR INDIANA
NATIONAL WEATHER SERVICE INDIANAPOLIS IN
500 AM EST FRI DEC 19 2014

NOTE: "FAIR" INDICATES FEW OR NO CLOUDS BELOW 12,000 FEET WITH NO
SIGNIFICANT WEATHER AND/OR OBSTRUCTIONS TO VISIBILITY.

* - STATION DOES NOT REPORT WEATHER SUCH AS PRECIPITATION OR FOG.

+ - STATION NOT QUALITY CONTROLLED BY THE NATIONAL WEATHER SERVICE.
    USE DATA WITH CAUTION...ESPECIALLY DEWPOINT AND RELATIVE
    HUMIDITY OBSERVATIONS.

INZ001>003-010>013-019-020-191100-
NORTHWEST INDIANA

CITY           SKY/WX    TMP DP  RH WIND       PRES   REMARKS
KNOX *+        CLOUDY    27  21  80 W6        30.24F WCI  20
LA PORTE +     CLOUDY    29  26  86 W9        30.24F WCI  21
MICHIGAN CITY+ CLOUDY    28  21  74 S3        30.24F
MONTICELLO +   CLOUDY    25  21  87 W3        30.26S
RENSSELAER +   CLOUDY    27  27 100 W5        30.27S WCI  21
VALPARAISO     CLOUDY    27  22  81 W8        30.25F WCI  19

$$

LMZ046-743>745-191100-
SOUTHERN LAKE MICHIGAN

STATION/POSITION TIME  TEMP WIND        PRES
                       AIR  DIR/SP/G
                 (UTC) (F)  (DEG/KT/KT) (MB)

$$

INZ004-005-014>016-021>024-191100-
NORTH CENTRAL INDIANA

CITY           SKY/WX    TMP DP  RH WIND       PRES   REMARKS
GOSHEN         CLOUDY    26  23  88 W6        30.23S WCI  19
LOGANSPORT +   CLOUDY    27  19  74 W5        30.26F WCI  21
PERU/GRISSOM   CLOUDY    26  25  98 NW7       30.24F WCI  18
ROCHESTER +    MOCLDY    28  25  86 W6        30.25S WCI  22
SOUTH BEND     CLOUDY    28  23  81 W5        30.24S WCI  23
WARSAW +       CLOUDY    27  23  86 W6        30.23F FOG     WCI  20

$$

INZ006>009-017-018-025>027-191100-
NORTHEAST INDIANA

CITY           SKY/WX    TMP DP  RH WIND       PRES   REMARKS
ANGOLA *+      CLOUDY    27  25  93 W5        30.20S WCI  21
AUBURN +       CLOUDY    28  23  80 W7        30.23S WCI  21
FORT WAYNE     CLOUDY    27  21  78 W8        30.24S WCI  19
HUNTINGTON +   CLOUDY    26  21  83 W5        30.24S WCI  20

$$

INZ028-029-035-036-043>045-051>053-191100-
WEST CENTRAL INDIANA

CITY           SKY/WX    TMP DP  RH WIND       PRES   REMARKS
GREENCASTLE +  CLOUDY    27  19  74 N5        30.26S WCI  21
LAFAYETTE      CLOUDY    19  17  92 W3        30.28S
TERRE HAUTE    PTCLDY    26  21  81 NW3       30.29R

$$

INZ030>032-037>040-046>048-054>057-064-065-191100-
CENTRAL INDIANA

CITY           SKY/WX    TMP DP  RH WIND       PRES   REMARKS
CP ATTERBURY + CLEAR     21  19  93 MISG      30.27S
FRANKFORT +    MOCLDY    20  20 100 W5        30.27S WCI  14
GREENWOOD *+   CLEAR     19  16  86 CALM      30.26F
INDIANAPOLIS   PTCLDY    20  17  88 W5        30.25F WCI  13
-EAGLE CREEK   CLEAR     23  19  85 NW6       30.25S WCI  16
KOKOMO *+      CLOUDY    27  19  74 NW9       30.25S WCI  17
MARION +       CLOUDY    26  22  86 NW6       30.25F WCI  19
MT COMFORT *+  CLEAR     21  18  86 NW3       30.25F
SHELBYVILLE    CLEAR     22  18  85 N6        30.25F WCI  14
ZIONSVILLE +   CLOUDY    22  19  86 NW3       30.25F

$$

INZ033-034-041-042-049-050-058-059-191100-
EAST CENTRAL INDIANA

CITY           SKY/WX    TMP DP  RH WIND       PRES   REMARKS
MUNCIE         CLOUDY    26  20  77 W5        30.24R WCI  20

$$

INZ060-061-067>069-081>083-085>088-191100-
SOUTHWEST INDIANA

CITY           SKY/WX    TMP DP  RH WIND       PRES   REMARKS
EVANSVILLE     CLOUDY    32  25  75 N6        30.29S WCI  26
HUNTINGBURG *+ CLOUDY    28  21  74 N6        30.28S WCI  22
WASHINGTON +   CLEAR     24  21  87 N5        30.28S WCI  19

$$

INZ062-063-066-070>080-084-089>092-191100-
SOUTH CENTRAL AND SOUTHEAST INDIANA

CITY           SKY/WX    TMP DP  RH WIND       PRES   REMARKS
BLOOMINGTON    CLOUDY    24  22  91 CALM      30.26S

$$




USA.gov is the U.S. government's official web portal to all federal, state and local government web resources and services.